FW9915 Weather Reports


Display with metric or nautical units.
time (UTC)temp
F
wind
direction
speed
MPH
gust
MPH
rain 1hr
in
rain 24hr
in
rain mn
in
humidity
%
barometer
mb
20260508190048 52 203 2.0 4.0 0.00 0.00 0.00 99 1015.2
20260508185024 52 217 2.0 4.0 0.00 0.00 0.00 99 1015.1
20260508184036 53 184 1.0 4.0 0.00 0.00 0.00 99 1015.1
20260508183044 53 158 1.0 2.0 0.00 0.00 0.00 99 1015.0
20260508182037 53 152 2.0 4.0 0.00 0.00 0.00 99 1015.0
20260508181036 53 113 1.0 2.0 0.00 0.00 0.00 99 1014.9
20260508180024 53 131 2.0 4.0 0.00 0.00 0.00 99 1014.8
20260508175036 53 130 2.0 4.0 0.00 0.00 0.00 99 1014.8
20260508174044 53 135 1.0 4.0 0.00 0.00 0.00 99 1014.6
20260508173024 52 135 2.0 4.0 0.00 0.00 0.00 99 1014.5
20260508172024 53 113 2.0 2.0 0.00 0.00 0.00 99 1014.5
20260508171048 52 113 1.0 2.0 0.00 0.00 0.00 99 1014.5
20260508170024 52 113 1.0 2.0 0.00 0.00 0.00 99 1014.5
20260508165044 53 141 2.0 4.0 0.00 0.00 0.00 99 1014.5
20260508164036 53 177 1.0 4.0 0.00 0.00 0.00 99 1014.6
20260508163044 53 135 1.0 2.0 0.00 0.00 0.00 99 1014.6
20260508162024 53 182 1.0 4.0 0.00 0.00 0.00 99 1014.7
20260508161024 53 113 2.0 4.0 0.00 0.00 0.00 99 1014.7
20260508160036 53 165 1.0 4.0 0.00 0.00 0.00 99 1014.8
20260508155024 53 113 2.0 4.0 0.00 0.00 0.00 99 1014.8
20260508154044 53 113 2.0 4.0 0.00 0.00 0.00 99 1014.8
20260508153024 53 94 2.0 4.0 0.00 0.00 0.00 99 1014.9
20260508152024 53 126 2.0 4.0 0.00 0.00 0.00 99 1014.9
20260508151044 53 183 3.0 9.0 0.00 0.00 0.00 99 1015.2
20260508150024 53 169 2.0 4.0 0.00 0.00 0.00 99 1015.2
20260508145024 53 200 2.0 7.0 0.00 0.00 0.00 99 1015.2
20260508144024 53 150 2.0 4.0 0.00 0.00 0.00 99 1015.2
20260508143024 53 174 2.0 4.0 0.00 0.00 0.00 99 1015.4
20260508142024 53 130 4.0 7.0 0.00 0.00 0.00 99 1015.4
20260508141036 54 166 2.0 7.0 0.00 0.00 0.00 99 1015.4
20260508140036 54 123 1.0 4.0 0.00 0.00 0.00 99 1015.5
20260508135024 53 131 4.0 7.0 0.00 0.00 0.00 99 1015.4
20260508134024 53 150 3.0 4.0 0.00 0.00 0.00 99 1015.5
20260508133024 53 128 4.0 7.0 0.00 0.00 0.00 98 1015.6
20260508132044 54 129 3.0 7.0 0.00 0.00 0.00 97 1015.7
20260508131024 54 127 3.0 7.0 0.00 0.00 0.00 97 1015.7
20260508130044 54 136 3.0 7.0 0.00 0.00 0.00 97 1015.7
20260508125044 54 135 4.0 9.0 0.00 0.00 0.00 96 1015.7
20260508124024 55 137 5.0 9.0 0.00 0.00 0.00 95 1015.7
20260508123024 54 135 4.0 9.0 0.00 0.00 0.00 96 1015.7
20260508122024 54 117 5.0 7.0 0.00 0.00 0.00 96 1015.8
20260508121024 55 124 5.0 7.0 0.00 0.00 0.00 95 1015.8
20260508120036 55 126 4.0 9.0 0.00 0.00 0.00 94 1015.8
20260508115056 57 119 4.0 7.0 0.00 0.00 0.00 92 1016.0
20260508114024 55 144 5.0 7.0 0.00 0.00 0.00 95 1016.1
20260508113024 56 148 3.0 9.0 0.00 0.00 0.00 93 1016.2
20260508112036 55 128 4.0 7.0 0.00 0.00 0.00 94 1016.3
20260508111636 55 135 3.0 7.0 0.00 0.00 0.00 93 1016.3
20260508111024 55 139 4.0 7.0 0.00 0.00 0.00 95 1016.3
20260508104524 55 175 4.0 9.0 0.00 0.00 0.00 95 1016.5
20260508103524 55 145 3.0 7.0 0.00 0.00 0.00 95 1016.4
20260508102524 54 138 5.0 9.0 0.00 0.00 0.00 96 1016.4
20260508101524 55 114 5.0 9.0 0.00 0.00 0.00 95 1016.3
20260508100524 55 147 5.0 9.0 0.00 0.00 0.00 94 1016.3
20260508095536 56 150 3.0 7.0 0.00 0.00 0.00 93 1016.3
20260508094524 55 136 4.0 7.0 0.00 0.00 0.00 93 1016.4
20260508093524 56 132 5.0 9.0 0.00 0.00 0.00 92 1016.3
20260508092524 56 148 4.0 7.0 0.00 0.00 0.00 92 1016.4
20260508091604 56 139 4.0 7.0 0.00 0.00 0.00 93 1016.4
20260508090524 55 117 4.0 7.0 0.00 0.00 0.00 95 1016.4
20260508085524 55 128 3.0 4.0 0.00 0.00 0.00 95 1016.5
20260508084525 55 135 3.0 7.0 0.00 0.00 0.00 95 1016.6
20260508083524 55 117 4.0 7.0 0.00 0.00 0.00 94 1016.7
20260508082524 56 137 3.0 7.0 0.00 0.00 0.00 91 1016.7
20260508081524 56 137 2.0 7.0 0.00 0.00 0.00 94 1016.7
20260508080524 54 143 2.0 4.0 0.00 0.00 0.00 97 1016.7
20260508075524 54 127 3.0 7.0 0.00 0.00 0.00 98 1016.7
20260508074524 54 124 4.0 7.0 0.00 0.00 0.00 99 1016.7
20260508073524 54 185 1.0 4.0 0.00 0.00 0.00 99 1016.8
20260508072536 53 184 2.0 4.0 0.00 0.00 0.00 99 1016.8
20260508071524 53 137 2.0 4.0 0.00 0.00 0.00 99 1016.8
20260508070524 53 139 2.0 4.0 0.00 0.00 0.00 99 1016.8
20260508065524 53 175 2.0 4.0 0.00 0.00 0.00 99 1016.8
20260508064524 53 156 1.0 4.0 0.00 0.00 0.00 99 1016.8
20260508063524 53 181 2.0 4.0 0.00 0.00 0.00 99 1016.8
20260508062524 53 125 2.0 4.0 0.00 0.00 0.00 99 1016.7
20260508061524 53 137 1.0 4.0 0.00 0.00 0.00 99 1016.7
20260508060524 53 144 4.0 7.0 0.00 0.00 0.00 99 1016.6
20260508055524 53 143 2.0 4.0 0.00 0.00 0.00 99 1016.6
20260508054536 53 130 3.0 7.0 0.00 0.00 0.00 99 1016.5
20260508053524 54 149 3.0 7.0 0.00 0.00 0.00 99 1016.6
20260508052524 54 150 3.0 7.0 0.00 0.00 0.00 99 1016.4
20260508051524 54 185 1.0 4.0 0.00 0.00 0.00 99 1016.6
20260508050524 53 193 3.0 4.0 0.00 0.00 0.00 99 1016.6
20260508045544 53 180 2.0 4.0 0.00 0.00 0.00 99 1016.4
20260508044544 53 195 3.0 7.0 0.00 0.00 0.00 99 1016.3
20260508043524 53 138 1.0 2.0 0.00 0.00 0.00 99 1016.1
20260508042524 53 162 1.0 2.0 0.00 0.00 0.00 99 1016.2
20260508041556 53 164 1.0 2.0 0.00 0.00 0.00 99 1016.2
20260508040548 52 180 0.0 2.0 0.00 0.00 0.00 99 1016.2
20260508035536 52 201 1.0 2.0 0.00 0.00 0.00 99 1016.2
20260508034524 52 201 1.0 2.0 0.00 0.00 0.00 99 1016.2
20260508033524 52 121 2.0 4.0 0.00 0.00 0.00 99 1016.1
20260508032524 52 180 1.0 2.0 0.00 0.00 0.00 99 1016.1
20260508030544 52 135 2.0 4.0 0.00 0.00 0.00 99 1015.9
20260508025524 52 146 2.0 4.0 0.00 0.00 0.00 99 1015.9
20260508024524 52 135 2.0 4.0 0.00 0.00 0.00 99 1015.8
20260508023604 52 209 1.0 4.0 0.00 0.00 0.00 99 1016.0
20260508022544 52 189 4.0 7.0 0.00 0.00 0.00 99 1016.0
20260508021628 52 199 2.0 4.0 0.00 0.00 0.00 99 1015.9
20260508020524 52 182 4.0 7.0 0.00 0.00 0.00 99 1015.9
20260508015536 52 192 4.0 7.0 0.00 0.00 0.00 99 1016.0
20260508014645 52 193 3.0 7.0 0.00 0.00 0.00 99 1016.0
20260508013524 52 195 4.0 7.0 0.00 0.00 0.00 99 1016.0
20260508012536 51 196 2.0 7.0 0.00 0.00 0.00 99 1016.0
20260508011525 52 200 3.0 4.0 0.00 0.00 0.00 99 1016.0
20260508010524 52 186 3.0 7.0 0.00 0.00 0.00 99 1016.1
20260508005536 52 178 5.0 9.0 0.00 0.00 0.00 99 1016.1
20260508004524 52 188 4.0 7.0 0.00 0.00 0.00 99 1016.2
20260508003548 52 186 4.0 9.0 0.00 0.00 0.00 99 1016.2
20260508002644 52 202 6.0 9.0 0.00 0.00 0.00 99 1016.2
20260508001536 52 199 4.0 7.0 0.00 0.00 0.00 99 1016.2
20260508000524 52 163 2.0 4.0 0.00 0.00 0.00 99 1016.2
20260507235544 52 203 1.0 4.0 0.00 0.00 0.00 99 1016.2
20260507234524 52 146 1.0 4.0 0.00 0.00 0.00 99 1016.2
20260507233524 52 118 2.0 7.0 0.00 0.00 0.00 99 1016.3
20260507232525 52 89 1.0 2.0 0.00 0.00 0.00 99 1016.5
20260507231544 52 135 3.0 4.0 0.00 0.00 0.00 99 1016.5
20260507230544 52 122 2.0 4.0 0.00 0.00 0.00 99 1016.5
20260507225604 52 113 2.0 4.0 0.00 0.00 0.00 99 1016.7
20260507224524 52 132 2.0 4.0 0.00 0.00 0.00 99 1016.7
20260507223536 52 189 4.0 7.0 0.00 0.00 0.00 99 1016.7
20260507222524 52 163 2.0 4.0 0.00 0.00 0.00 99 1016.8
20260507221524 52 161 2.0 4.0 0.00 0.00 0.00 99 1016.9
20260507220524 52 200 3.0 9.0 0.00 0.00 0.00 99 1017.0
20260507215524 52 204 4.0 9.0 0.00 0.00 0.00 99 1017.0
20260507214525 52 203 2.0 4.0 0.00 0.00 0.00 99 1017.0
20260507213544 52 210 2.0 7.0 0.00 0.00 0.00 99 1017.0
20260507212524 52 200 4.0 9.0 0.00 0.00 0.00 99 1017.1
20260507211524 52 193 4.0 7.0 0.00 0.00 0.00 99 1017.1
20260507210548 52 210 2.0 4.0 0.00 0.00 0.00 99 1017.1
20260507205524 52 201 2.0 4.0 0.00 0.00 0.00 99 1017.0
20260507204600 52 212 3.0 7.0 0.00 0.00 0.00 99 1017.1
20260507203548 52 217 3.0 7.0 0.00 0.00 0.00 99 1017.0
20260507202524 52 198 3.0 9.0 0.00 0.00 0.00 99 1016.9
20260507201524 52 199 3.0 7.0 0.00 0.00 0.00 99 1016.9
20260507200524 52 203 2.0 4.0 0.00 0.00 0.00 99 1017.0
20260507195524 52 210 3.0 7.0 0.00 0.00 0.00 99 1017.1
20260507194524 52 190 3.0 7.0 0.00 0.00 0.00 99 1017.1
20260507193605 52 172 3.0 7.0 0.00 0.00 0.00 99 1017.1
20260507192524 52 182 3.0 7.0 0.00 0.00 0.00 99 1017.1
20260507191548 52 210 3.0 7.0 0.00 0.00 0.00 99 1017.1
20260507190524 52 192 2.0 7.0 0.00 0.00 0.00 99 1017.0